Location: Asbacherhof
(48.8543°N, 10.7903°E)
Time: 17:22:48
(UTC+00:00)

SAR-Lupe-2 - Pass Details

Date: 26 May 2022
Orbit: 480 x 482 km, 98.1° (Epoch: 30 June)

Event Time Altitude Azimuth Distance (km) Brightness Sun altitude
Rises 01:05:57 0° 18° (NNE) 2,555 9.0 -15.7°
Reaches altitude 10° 01:08:04 10° 25° (NNE) 1,670 7.7 -15.6°
Maximum altitude 01:11:33 48° 100° (E) 636 4.2 -15.3°
Enters shadow 01:13:34 22° 167° (SSE) 1,096 4.9 -15.1°
